| time (UTC) | temp C | wind direction | speed KPH | gust KPH | rain 1hr cm | rain 24hr cm | rain mn cm | humidity % | barometer mb |
| 20260506092204 | 11 | 225 | 1.6 | 8.0 | 0.00 | 1.70 | 0.23 | 93 | 1005.5 |
| 20260506091704 | 11 | 304 | 1.6 | 6.4 | 0.00 | 1.70 | 0.23 | 93 | 1005.4 |
| 20260506090704 | 11 | 339 | 1.6 | 4.8 | 0.00 | 1.70 | 0.23 | 94 | 1005.4 |
| 20260506085704 | 11 | 303 | 1.6 | 11.3 | 0.00 | 1.70 | 0.23 | 95 | 1005.3 |
| 20260506085204 | 11 | 290 | 3.2 | 11.3 | 0.00 | 1.70 | 0.23 | 95 | 1005.3 |
| 20260506084704 | 11 | 289 | 4.8 | 11.3 | 0.00 | 1.70 | 0.23 | 95 | 1005.3 |
| 20260506084204 | 11 | 296 | 3.2 | 8.0 | 0.00 | 1.70 | 0.23 | 96 | 1005.2 |
| 20260506083704 | 11 | 234 | 3.2 | 8.0 | 0.00 | 1.70 | 0.23 | 96 | 1005.1 |
| 20260506083204 | 11 | 253 | 3.2 | 11.3 | 0.00 | 1.70 | 0.23 | 95 | 1005.2 |
| 20260506082204 | 11 | 340 | 3.2 | 11.3 | 0.03 | 1.70 | 0.23 | 96 | 1005.0 |
| 20260506081704 | 11 | 270 | 1.6 | 8.0 | 0.03 | 1.70 | 0.23 | 96 | 1005.0 |
| 20260506081204 | 11 | 256 | 1.6 | 8.0 | 0.03 | 1.70 | 0.23 | 96 | 1005.0 |
| 20260506080204 | 11 | 310 | 1.6 | 6.4 | 0.03 | 1.70 | 0.23 | 96 | 1004.9 |
| 20260506073204 | 11 | 264 | 1.6 | 8.0 | 0.03 | 1.68 | 0.23 | 96 | 1005.0 |
| 20260506072704 | 11 | 264 | 1.6 | 6.4 | 0.03 | 1.68 | 0.23 | 96 | 1005.0 |
| 20260506072204 | 11 | 268 | 0.0 | 6.4 | 0.03 | 1.68 | 0.23 | 96 | 1005.0 |
| 20260506071704 | 11 | 252 | 0.0 | 3.2 | 0.05 | 1.68 | 0.23 | 96 | 1004.9 |
| 20260506071204 | 11 | 252 | 0.0 | 3.2 | 0.05 | 1.68 | 0.23 | 96 | 1004.8 |
| 20260506070704 | 11 | 250 | 0.0 | 3.2 | 0.05 | 1.68 | 0.23 | 96 | 1004.8 |
| 20260506070205 | 11 | 250 | 0.0 | 4.8 | 0.08 | 1.68 | 0.23 | 96 | 1004.8 |
| 20260506062204 | 11 | 248 | 1.6 | 6.4 | 0.13 | 1.65 | 0.20 | 96 | 1004.4 |
| 20260506061704 | 11 | 248 | 1.6 | 6.4 | 0.10 | 1.65 | 0.18 | 96 | 1004.5 |
| 20260506061204 | 11 | 248 | 1.6 | 8.0 | 0.08 | 1.63 | 0.15 | 96 | 1004.5 |
| 20260506060704 | 11 | 248 | 3.2 | 8.0 | 0.08 | 1.63 | 0.15 | 95 | 1004.3 |
| 20260506051204 | 11 | 177 | 0.0 | 4.8 | 0.03 | 1.55 | 0.08 | 96 | 1004.2 |
| 20260506050204 | 11 | 232 | 0.0 | 4.8 | 0.05 | 1.55 | 0.08 | 96 | 1004.1 |
| 20260506044704 | 11 | 244 | 0.0 | 3.2 | 0.08 | 1.55 | 0.08 | 95 | 1004.0 |
| 20260506044204 | 11 | 243 | 0.0 | 3.2 | 0.08 | 1.55 | 0.08 | 95 | 1003.9 |
| 20260506043704 | 11 | 243 | 0.0 | 4.8 | 0.08 | 1.55 | 0.08 | 95 | 1004.1 |
| 20260506043204 | 11 | 243 | 0.0 | 4.8 | 0.08 | 1.55 | 0.08 | 95 | 1004.1 |
| 20260506042704 | 11 | 243 | 0.0 | 4.8 | 0.08 | 1.55 | 0.08 | 95 | 1004.2 |
| 20260506042204 | 11 | 231 | 0.0 | 1.6 | 0.05 | 1.52 | 0.05 | 95 | 1004.2 |
| 20260506041704 | 11 | 231 | 0.0 | 0.0 | 0.05 | 1.52 | 0.05 | 95 | 1004.2 |
| 20260506041204 | 11 | 231 | 0.0 | 0.0 | 0.05 | 1.52 | 0.05 | 95 | 1004.2 |
| 20260506040704 | 11 | 231 | 0.0 | 0.0 | 0.03 | 1.47 | 0.03 | 95 | 1004.3 |
| 20260506040205 | 11 | 231 | 0.0 | 3.2 | 0.00 | 1.45 | 0.00 | 95 | 1004.2 |
| 20260506035704 | 11 | 231 | 0.0 | 3.2 | 0.00 | 1.45 | 0.00 | 94 | 1004.3 |
| 20260506034704 | 11 | 229 | 0.0 | 4.8 | 0.00 | 1.45 | 0.00 | 94 | 1004.4 |
| 20260506034205 | 11 | 229 | 0.0 | 3.2 | 0.00 | 1.45 | 0.00 | 94 | 1004.4 |
| 20260506033704 | 11 | 227 | 0.0 | 4.8 | 0.00 | 1.45 | 0.00 | 94 | 1004.5 |
| 20260506033204 | 11 | 225 | 0.0 | 4.8 | 0.00 | 1.45 | 0.00 | 94 | 1004.4 |
| 20260506032704 | 11 | 225 | 0.0 | 4.8 | 0.00 | 1.45 | 0.00 | 94 | 1004.5 |
| 20260506032205 | 11 | 224 | 0.0 | 4.8 | 0.00 | 1.45 | 0.00 | 94 | 1004.5 |
| 20260506031704 | 11 | 240 | 0.0 | 4.8 | 0.00 | 1.45 | 0.00 | 95 | 1004.5 |
| 20260506030704 | 11 | 252 | 0.0 | 3.2 | 0.00 | 1.45 | 0.00 | 95 | 1004.6 |
| 20260506030205 | 11 | 252 | 0.0 | 3.2 | 0.00 | 1.45 | 0.00 | 95 | 1004.5 |
| 20260506025704 | 11 | 236 | 0.0 | 6.4 | 0.00 | 1.45 | 0.00 | 95 | 1004.6 |
| 20260506025204 | 11 | 236 | 0.0 | 6.4 | 0.00 | 1.45 | 0.00 | 95 | 1004.6 |
| 20260506024704 | 11 | 236 | 0.0 | 6.4 | 0.00 | 1.45 | 0.00 | 95 | 1004.6 |
| 20260506024204 | 11 | 231 | 0.0 | 4.8 | 0.00 | 1.45 | 0.00 | 95 | 1004.7 |
| 20260506023704 | 11 | 235 | 0.0 | 6.4 | 0.00 | 1.45 | 0.00 | 95 | 1004.6 |
| 20260506023204 | 11 | 217 | 0.0 | 6.4 | 0.00 | 1.45 | 0.00 | 95 | 1004.6 |
| 20260506022704 | 11 | 217 | 1.6 | 8.0 | 0.00 | 1.45 | 0.00 | 95 | 1004.6 |
| 20260506022204 | 11 | 214 | 3.2 | 9.7 | 0.00 | 1.45 | 0.00 | 95 | 1004.6 |
| 20260506021705 | 12 | 247 | 3.2 | 9.7 | 0.00 | 1.45 | 0.00 | 95 | 1004.6 |
| 20260506021205 | 12 | 252 | 1.6 | 9.7 | 0.00 | 1.45 | 0.00 | 95 | 1004.6 |
| 20260506020704 | 12 | 244 | 1.6 | 8.0 | 0.00 | 1.45 | 0.00 | 95 | 1004.7 |
| 20260506020204 | 12 | 233 | 1.6 | 6.4 | 0.00 | 1.45 | 0.00 | 95 | 1004.5 |
| 20260506015704 | 12 | 235 | 0.0 | 4.8 | 0.00 | 1.45 | 0.00 | 95 | 1004.6 |
| 20260506015204 | 12 | 222 | 0.0 | 4.8 | 0.00 | 1.45 | 0.00 | 95 | 1004.7 |
| 20260506014704 | 12 | 223 | 1.6 | 4.8 | 0.00 | 1.45 | 0.00 | 95 | 1004.6 |
| 20260506014205 | 12 | 294 | 1.6 | 6.4 | 0.00 | 1.45 | 0.00 | 95 | 1004.7 |
| 20260506013705 | 12 | 11 | 1.6 | 8.0 | 0.00 | 1.45 | 0.00 | 95 | 1004.8 |
| 20260506012704 | 12 | 236 | 1.6 | 8.0 | 0.00 | 1.45 | 0.00 | 95 | 1004.9 |
| 20260506012204 | 12 | 242 | 1.6 | 8.0 | 0.00 | 1.45 | 0.00 | 95 | 1004.8 |
| 20260506011704 | 12 | 232 | 1.6 | 6.4 | 0.00 | 1.45 | 0.00 | 95 | 1004.9 |
| 20260506011204 | 12 | 238 | 0.0 | 6.4 | 0.00 | 1.45 | 0.00 | 95 | 1004.9 |
| 20260506010704 | 12 | 242 | 0.0 | 6.4 | 0.00 | 1.45 | 0.00 | 95 | 1004.9 |
| 20260506010204 | 12 | 242 | 0.0 | 8.0 | 0.00 | 1.45 | 0.00 | 95 | 1004.9 |
| 20260506005705 | 12 | 255 | 1.6 | 8.0 | 0.00 | 1.45 | 0.00 | 95 | 1005.0 |
| 20260506005206 | 12 | 255 | 1.6 | 8.0 | 0.00 | 1.45 | 0.00 | 95 | 1004.9 |
| 20260506004704 | 12 | 213 | 1.6 | 9.7 | 0.00 | 1.45 | 0.00 | 95 | 1005.0 |
| 20260506004204 | 12 | 130 | 3.2 | 9.7 | 0.00 | 1.45 | 0.00 | 95 | 1005.1 |
| 20260506003204 | 12 | 228 | 1.6 | 12.9 | 0.00 | 1.45 | 0.00 | 95 | 1005.1 |
| 20260506002704 | 12 | 146 | 1.6 | 12.9 | 0.00 | 1.45 | 0.00 | 95 | 1005.1 |
| 20260506002204 | 12 | 156 | 1.6 | 9.7 | 0.00 | 1.45 | 0.00 | 95 | 1005.1 |
| 20260506001204 | 12 | 38 | 1.6 | 9.7 | 0.00 | 1.45 | 0.00 | 95 | 1005.2 |
| 20260505235704 | 12 | 227 | 1.6 | 8.0 | 0.00 | 1.45 | 0.00 | 95 | 1005.4 |
| 20260505235205 | 12 | 216 | 0.0 | 8.0 | 0.00 | 1.45 | 0.00 | 95 | 1005.4 |
| 20260505234704 | 12 | 201 | 1.6 | 8.0 | 0.00 | 1.45 | 0.00 | 95 | 1005.5 |
| 20260505234204 | 12 | 210 | 1.6 | 8.0 | 0.00 | 1.45 | 0.00 | 96 | 1005.5 |
| 20260505233704 | 12 | 221 | 0.0 | 8.0 | 0.00 | 1.45 | 0.00 | 96 | 1005.6 |
| 20260505233204 | 12 | 212 | 1.6 | 8.0 | 0.00 | 1.45 | 0.00 | 96 | 1005.5 |
| 20260505232705 | 12 | 237 | 1.6 | 8.0 | 0.00 | 1.45 | 0.00 | 96 | 1005.5 |
| 20260505232204 | 12 | 294 | 1.6 | 8.0 | 0.00 | 1.45 | 0.00 | 96 | 1005.5 |
| 20260505231705 | 12 | 152 | 1.6 | 8.0 | 0.00 | 1.45 | 0.00 | 96 | 1005.6 |
| 20260505231204 | 12 | 247 | 0.0 | 4.8 | 0.00 | 1.45 | 0.00 | 96 | 1005.5 |
| 20260505230704 | 12 | 185 | 0.0 | 6.4 | 0.00 | 1.45 | 0.00 | 96 | 1005.5 |
| 20260505225705 | 12 | 297 | 0.0 | 12.9 | 0.00 | 1.45 | 0.00 | 96 | 1005.5 |
| 20260505225205 | 12 | 241 | 0.0 | 12.9 | 0.00 | 1.45 | 0.00 | 96 | 1005.6 |
| 20260505224704 | 12 | 303 | 0.0 | 3.2 | 0.00 | 1.45 | 0.00 | 96 | 1005.6 |
| 20260505224204 | 12 | 179 | 0.0 | 9.7 | 0.00 | 1.45 | 0.00 | 96 | 1005.7 |
| 20260505223204 | 12 | 156 | 0.0 | 9.7 | 0.03 | 1.45 | 0.00 | 96 | 1005.6 |
| 20260505222730 | 12 | 138 | 0.0 | 1.6 | 0.03 | 1.45 | 0.00 | 96 | 1005.6 |
| 20260505222204 | 12 | 157 | 0.0 | 1.6 | 0.03 | 1.45 | 0.00 | 96 | 1005.6 |
| 20260505221704 | 12 | 156 | 0.0 | 1.6 | 0.03 | 1.45 | 0.00 | 96 | 1005.6 |
| 20260505221204 | 12 | 159 | 0.0 | 0.0 | 0.03 | 1.45 | 0.00 | 96 | 1005.6 |
| 20260505220705 | 12 | 160 | 0.0 | 1.6 | 0.03 | 1.45 | 0.00 | 96 | 1005.7 |
| 20260505220204 | 12 | 159 | 0.0 | 1.6 | 0.03 | 1.45 | 1.45 | 96 | 1005.7 |
| 20260505215704 | 12 | 160 | 0.0 | 1.6 | 0.03 | 1.45 | 1.45 | 96 | 1005.8 |
| 20260505215204 | 12 | 355 | 0.0 | 1.6 | 0.03 | 1.45 | 1.45 | 96 | 1005.9 |
| 20260505214205 | 12 | 355 | 0.0 | 1.6 | 0.03 | 1.45 | 1.45 | 96 | 1005.8 |
| 20260505213204 | 12 | 355 | 0.0 | 0.0 | 0.00 | 1.45 | 1.45 | 96 | 1005.9 |
| 20260505212704 | 12 | 355 | 0.0 | 0.0 | 0.00 | 1.45 | 1.45 | 96 | 1005.9 |
| 20260505212224 | 12 | 355 | 0.0 | 0.0 | 0.00 | 1.45 | 1.45 | 96 | 1006.0 |
| 20260505211205 | 12 | 355 | 0.0 | 0.0 | 0.00 | 1.45 | 1.45 | 96 | 1006.0 |
| 20260505210704 | 12 | 355 | 0.0 | 0.0 | 0.00 | 1.45 | 1.45 | 96 | 1006.2 |
| 20260505210204 | 12 | 355 | 0.0 | 0.0 | 0.00 | 1.45 | 1.45 | 96 | 1006.3 |
| 20260505205704 | 12 | 355 | 0.0 | 0.0 | 0.03 | 1.45 | 1.45 | 96 | 1006.2 |
| 20260505204704 | 12 | 355 | 0.0 | 1.6 | 0.08 | 1.45 | 1.45 | 96 | 1006.4 |
| 20260505203705 | 12 | 355 | 0.0 | 0.0 | 0.15 | 1.45 | 1.45 | 96 | 1006.3 |
| 20260505203204 | 13 | 355 | 0.0 | 0.0 | 0.20 | 1.45 | 1.45 | 96 | 1006.4 |
| 20260505202704 | 13 | 355 | 0.0 | 0.0 | 0.33 | 1.45 | 1.45 | 96 | 1006.4 |
| 20260505202204 | 13 | 355 | 0.0 | 0.0 | 0.43 | 1.45 | 1.45 | 96 | 1006.3 |
| 20260505201704 | 13 | 355 | 0.0 | 0.0 | 0.51 | 1.45 | 1.45 | 96 | 1006.3 |
| 20260505201204 | 13 | 355 | 0.0 | 0.0 | 0.53 | 1.45 | 1.45 | 96 | 1006.3 |
| 20260505200705 | 13 | 355 | 0.0 | 0.0 | 0.58 | 1.45 | 1.45 | 96 | 1006.3 |
| 20260505200204 | 13 | 355 | 0.0 | 3.2 | 0.61 | 1.45 | 1.45 | 96 | 1006.3 |
| 20260505195705 | 13 | 348 | 0.0 | 3.2 | 0.61 | 1.42 | 1.42 | 96 | 1006.0 |
| 20260505195205 | 13 | 348 | 0.0 | 4.8 | 0.61 | 1.37 | 1.37 | 95 | 1006.0 |
| 20260505194704 | 13 | 337 | 0.0 | 4.8 | 0.64 | 1.37 | 1.37 | 95 | 1006.0 |
| 20260505193704 | 13 | 335 | 0.0 | 3.2 | 0.61 | 1.27 | 1.27 | 95 | 1006.2 |
| 20260505193204 | 13 | 319 | 0.0 | 3.2 | 0.61 | 1.22 | 1.22 | 95 | 1005.9 |
| 20260505192704 | 13 | 31 | 0.0 | 0.0 | 0.46 | 1.07 | 1.07 | 96 | 1006.0 |
| 20260505191704 | 13 | 33 | 0.0 | 0.0 | 0.38 | 0.94 | 0.94 | 95 | 1006.0 |
| 20260505191204 | 13 | 33 | 0.0 | 0.0 | 0.33 | 0.89 | 0.89 | 95 | 1005.9 |
| 20260505190205 | 13 | 33 | 0.0 | 0.0 | 0.33 | 0.81 | 0.81 | 95 | 1005.9 |
| 20260505184704 | 13 | 33 | 0.0 | 0.0 | 0.23 | 0.71 | 0.71 | 95 | 1005.9 |
| 20260505184204 | 13 | 33 | 0.0 | 0.0 | 0.23 | 0.66 | 0.66 | 95 | 1005.9 |
| 20260505183705 | 13 | 33 | 0.0 | 0.0 | 0.23 | 0.64 | 0.64 | 94 | 1005.9 |
| 20260505181704 | 13 | 33 | 0.0 | 1.6 | 0.15 | 0.53 | 0.53 | 94 | 1005.9 |
| 20260505181205 | 13 | 15 | 0.0 | 4.8 | 0.13 | 0.51 | 0.51 | 94 | 1005.9 |
| 20260505180705 | 13 | 16 | 0.0 | 4.8 | 0.13 | 0.51 | 0.51 | 94 | 1005.9 |
| 20260505180204 | 13 | 19 | 0.0 | 4.8 | 0.08 | 0.48 | 0.48 | 94 | 1005.9 |
| 20260505175204 | 13 | 38 | 0.0 | 3.2 | 0.05 | 0.46 | 0.46 | 93 | 1006.0 |
| 20260505174705 | 13 | 38 | 0.0 | 1.6 | 0.05 | 0.46 | 0.46 | 93 | 1006.0 |
| 20260505174204 | 13 | 51 | 0.0 | 1.6 | 0.05 | 0.43 | 0.43 | 93 | 1006.0 |
| 20260505173704 | 13 | 313 | 0.0 | 1.6 | 0.03 | 0.43 | 0.43 | 92 | 1006.0 |
| 20260505173204 | 13 | 313 | 0.0 | 1.6 | 0.03 | 0.43 | 0.43 | 92 | 1006.2 |
| 20260505172705 | 13 | 313 | 0.0 | 1.6 | 0.00 | 0.41 | 0.41 | 92 | 1006.2 |
| 20260505172205 | 13 | 313 | 0.0 | 1.6 | 0.00 | 0.41 | 0.41 | 92 | 1006.2 |
| 20260505171704 | 14 | 313 | 0.0 | 1.6 | 0.00 | 0.41 | 0.41 | 92 | 1006.2 |
| 20260505171204 | 14 | 313 | 0.0 | 1.6 | 0.00 | 0.41 | 0.41 | 91 | 1006.2 |
| 20260505170704 | 14 | 313 | 0.0 | 1.6 | 0.00 | 0.41 | 0.41 | 91 | 1006.2 |
| 20260505170205 | 14 | 313 | 0.0 | 0.0 | 0.00 | 0.41 | 0.41 | 91 | 1006.2 |
| 20260505165705 | 14 | 313 | 0.0 | 0.0 | 0.00 | 0.41 | 0.41 | 91 | 1006.2 |
| 20260505165204 | 14 | 313 | 0.0 | 0.0 | 0.00 | 0.41 | 0.41 | 91 | 1006.2 |
| 20260505164704 | 14 | 313 | 0.0 | 0.0 | 0.00 | 0.41 | 0.41 | 92 | 1006.4 |
| 20260505164204 | 14 | 313 | 0.0 | 0.0 | 0.00 | 0.41 | 0.41 | 91 | 1006.2 |
| 20260505163704 | 14 | 313 | 0.0 | 1.6 | 0.03 | 0.41 | 0.41 | 91 | 1006.3 |
| 20260505162704 | 14 | 313 | 0.0 | 3.2 | 0.03 | 0.41 | 0.41 | 93 | 1006.4 |
| 20260505161720 | 14 | 313 | 0.0 | 3.2 | 0.03 | 0.41 | 0.41 | 93 | 1006.3 |
| 20260505161204 | 13 | 313 | 0.0 | 3.2 | 0.05 | 0.41 | 0.41 | 93 | 1006.3 |
| 20260505160204 | 13 | 313 | 0.0 | 3.2 | 0.05 | 0.41 | 0.41 | 92 | 1006.5 |
| 20260505152705 | 14 | 233 | 0.0 | 0.0 | 0.08 | 0.43 | 0.38 | 92 | 1006.6 |
| 20260505152204 | 14 | 233 | 0.0 | 0.0 | 0.08 | 0.43 | 0.38 | 92 | 1006.7 |
| 20260505151704 | 14 | 233 | 0.0 | 0.0 | 0.05 | 0.43 | 0.36 | 92 | 1006.7 |
| 20260505151219 | 14 | 233 | 0.0 | 0.0 | 0.08 | 0.46 | 0.36 | 92 | 1006.7 |
| 20260505150728 | 14 | 233 | 0.0 | 0.0 | 0.08 | 0.48 | 0.36 | 91 | 1006.8 |
| 20260505150205 | 14 | 233 | 0.0 | 0.0 | 0.05 | 0.51 | 0.33 | 91 | 1006.9 |
| 20260505140204 | 13 | 233 | 0.0 | 1.6 | 0.05 | 0.51 | 0.25 | 91 | 1007.1 |
| 20260505130204 | 14 | 242 | 0.0 | 6.4 | 0.18 | 0.43 | 0.20 | 92 | 1007.5 |
| 20260505124204 | 14 | 283 | 1.6 | 9.7 | 0.15 | 0.41 | 0.15 | 91 | 1007.5 |
| 20260505123704 | 14 | 210 | 1.6 | 6.4 | 0.15 | 0.38 | 0.15 | 91 | 1007.5 |
| 20260505123204 | 14 | 254 | 1.6 | 8.0 | 0.15 | 0.38 | 0.15 | 91 | 1007.4 |
| 20260505122704 | 14 | 254 | 1.6 | 8.0 | 0.10 | 0.33 | 0.10 | 89 | 1007.5 |
| 20260505122204 | 14 | 207 | 1.6 | 11.3 | 0.08 | 0.33 | 0.08 | 88 | 1007.6 |
| 20260505121704 | 15 | 272 | 1.6 | 11.3 | 0.08 | 0.33 | 0.08 | 88 | 1007.6 |
| 20260505121204 | 15 | 294 | 1.6 | 11.3 | 0.05 | 0.28 | 0.05 | 88 | 1007.7 |
| 20260505120704 | 15 | 145 | 0.0 | 6.4 | 0.03 | 0.25 | 0.03 | 87 | 1007.6 |
| 20260505120204 | 15 | 303 | 0.0 | 8.0 | 0.00 | 0.23 | 0.00 | 86 | 1007.5 |
| 20260505114704 | 16 | 244 | 1.6 | 8.0 | 0.00 | 0.23 | 0.00 | 83 | 1007.4 |
| 20260505114204 | 16 | 223 | 0.0 | 6.4 | 0.00 | 0.23 | 0.00 | 82 | 1007.4 |
| 20260505113704 | 16 | 281 | 0.0 | 6.4 | 0.00 | 0.25 | 0.00 | 82 | 1007.4 |
| 20260505113204 | 16 | 228 | 1.6 | 8.0 | 0.00 | 0.25 | 0.00 | 82 | 1007.5 |
| 20260505112704 | 16 | 52 | 1.6 | 8.0 | 0.00 | 0.25 | 0.00 | 82 | 1007.5 |
| 20260505112204 | 16 | 237 | 1.6 | 8.0 | 0.00 | 0.25 | 0.00 | 82 | 1007.4 |
| 20260505110704 | 16 | 98 | 0.0 | 6.4 | 0.00 | 0.25 | 0.00 | 81 | 1007.5 |
| 20260505110204 | 16 | 106 | 0.0 | 1.6 | 0.00 | 0.25 | 0.00 | 81 | 1007.6 |
| 20260505102204 | 16 | 295 | 0.0 | 1.6 | 0.00 | 0.28 | 0.00 | 79 | 1007.8 |
| 20260505101704 | 16 | 295 | 0.0 | 1.6 | 0.00 | 0.28 | 0.00 | 80 | 1007.8 |
| 20260505100704 | 16 | 295 | 0.0 | 1.6 | 0.00 | 0.28 | 0.00 | 81 | 1007.8 |
| 20260505100205 | 16 | 295 | 0.0 | 1.6 | 0.00 | 0.30 | 0.00 | 80 | 1007.9 |
| 20260505095704 | 16 | 295 | 0.0 | 1.6 | 0.00 | 0.30 | 0.00 | 81 | 1008.0 |
| 20260505094704 | 16 | 295 | 0.0 | 4.8 | 0.00 | 0.30 | 0.00 | 85 | 1007.9 |
| 20260505094204 | 15 | 295 | 0.0 | 8.0 | 0.00 | 0.30 | 0.00 | 84 | 1007.9 |
| 20260505093704 | 15 | 295 | 0.0 | 8.0 | 0.00 | 0.30 | 0.00 | 83 | 1007.8 |
| 20260505093204 | 15 | 12 | 1.6 | 8.0 | 0.00 | 0.30 | 0.00 | 84 | 1007.9 |